Time,TemperatureF,DewpointF,PressureIn,WindDirection,WindDirectionDegrees,WindSpeedMPH,WindSpeedGustMPH,Humidity,HourlyPrecipIn,Conditions,Clouds,dailyrainin,SoftwareType,DateUTC
2013-04-17 00:00:00,59.0,57.0,30.14,ESE,102,0.0,1.0,93,0.00,,,1.12,Wunderground v.1.13,2013-04-17 04:00:00,
2013-04-17 00:05:00,59.0,57.0,30.14,ESE,102,0.0,0.0,93,0.00,,,1.12,Wunderground v.1.13,2013-04-17 04:05:00,
2013-04-17 00:10:00,59.0,57.0,30.14,ESE,102,0.0,0.0,93,0.00,,,1.12,Wunderground v.1.13,2013-04-17 04:10:00,
2013-04-17 00:15:00,59.0,57.0,30.14,ESE,102,0.0,0.0,93,0.00,,,1.12,Wunderground v.1.13,2013-04-17 04:15:00,
2013-04-17 00:20:00,58.9,56.9,30.14,ESE,102,0.0,0.0,93,0.00,,,1.12,Wunderground v.1.13,2013-04-17 04:20:00,
2013-04-17 00:25:00,58.6,56.6,30.14,ESE,102,0.0,0.0,93,0.00,,,1.12,Wunderground v.1.13,2013-04-17 04:25:00,
2013-04-17 00:35:00,58.7,57.0,30.14,ESE,102,0.0,0.0,94,0.00,,,1.12,Wunderground v.1.13,2013-04-17 04:35:00,
2013-04-17 00:40:00,59.0,57.3,30.13,West,268,1.0,1.0,94,0.00,,,1.12,Wunderground v.1.13,2013-04-17 04:40:00,
2013-04-17 00:45:00,59.0,57.3,30.13,West,268,0.0,0.0,94,0.00,,,1.12,Wunderground v.1.13,2013-04-17 04:45:00,
2013-04-17 00:50:00,59.0,57.3,30.13,West,268,0.0,0.0,94,0.00,,,1.12,Wunderground v.1.13,2013-04-17 04:50:00,
2013-04-17 00:55:00,59.0,57.3,30.13,West,268,0.0,0.0,94,0.00,,,1.12,Wunderground v.1.13,2013-04-17 04:55:00,
2013-04-17 01:00:00,59.0,57.3,30.13,West,268,0.0,0.0,94,0.00,,,1.12,Wunderground v.1.13,2013-04-17 05:00:00,
2013-04-17 01:05:00,59.0,57.3,30.13,West,268,0.0,0.0,94,0.00,,,1.12,Wunderground v.1.13,2013-04-17 05:05:00,
2013-04-17 01:15:00,59.0,57.3,30.13,West,268,0.0,0.0,94,0.00,,,1.12,Wunderground v.1.13,2013-04-17 05:15:00,
2013-04-17 01:20:00,59.0,57.3,30.12,West,268,0.0,0.0,94,0.00,,,1.12,Wunderground v.1.13,2013-04-17 05:20:00,
2013-04-17 01:25:00,59.0,57.3,30.12,West,268,0.0,0.0,94,0.00,,,1.12,Wunderground v.1.13,2013-04-17 05:25:00,
2013-04-17 01:30:00,59.0,57.3,30.12,West,268,0.0,0.0,94,0.00,,,1.12,Wunderground v.1.13,2013-04-17 05:30:00,
2013-04-17 01:40:00,58.8,57.1,30.12,West,268,0.0,0.0,94,0.00,,,1.12,Wunderground v.1.13,2013-04-17 05:40:00,
2013-04-17 01:45:00,58.7,57.0,30.13,West,268,0.0,0.0,94,0.00,,,1.12,Wunderground v.1.13,2013-04-17 05:45:00,
2013-04-17 01:50:00,58.6,56.9,30.12,West,268,0.0,0.0,94,0.00,,,1.12,Wunderground v.1.13,2013-04-17 05:50:00,
2013-04-17 01:55:00,58.5,56.8,30.13,West,268,0.0,0.0,94,0.00,,,1.12,Wunderground v.1.13,2013-04-17 05:55:00,
2013-04-17 02:00:00,58.5,56.8,30.13,West,268,0.0,0.0,94,0.00,,,1.12,Wunderground v.1.13,2013-04-17 06:00:00,
2013-04-17 02:05:00,58.4,56.7,30.13,West,268,0.0,0.0,94,0.00,,,1.12,Wunderground v.1.13,2013-04-17 06:05:00,
2013-04-17 02:15:00,58.3,56.6,30.13,West,268,0.0,0.0,94,0.00,,,1.12,Wunderground v.1.13,2013-04-17 06:15:00,
2013-04-17 02:20:00,58.3,56.6,30.14,West,268,0.0,0.0,94,0.00,,,1.12,Wunderground v.1.13,2013-04-17 06:20:00,
2013-04-17 02:25:00,58.3,56.6,30.14,West,268,0.0,0.0,94,0.00,,,1.12,Wunderground v.1.13,2013-04-17 06:25:00,
2013-04-17 02:30:00,58.2,56.5,30.14,West,268,0.0,0.0,94,0.00,,,1.12,Wunderground v.1.13,2013-04-17 06:30:00,
2013-04-17 02:35:00,58.2,56.5,30.13,West,268,0.0,1.0,94,0.00,,,1.12,Wunderground v.1.13,2013-04-17 06:35:00,
2013-04-17 02:45:00,58.2,56.5,30.13,West,268,0.0,0.0,94,0.00,,,1.12,Wunderground v.1.13,2013-04-17 06:45:00,
2013-04-17 02:50:00,58.0,56.3,30.13,West,268,0.0,0.0,94,0.00,,,1.12,Wunderground v.1.13,2013-04-17 06:50:00,
2013-04-17 02:55:00,57.9,56.2,30.12,West,268,0.0,0.0,94,0.00,,,1.12,Wunderground v.1.13,2013-04-17 06:55:00,
2013-04-17 03:05:00,57.8,56.1,30.13,West,275,0.0,3.0,94,0.00,,,0.00,Wunderground v.1.13,2013-04-17 07:05:00,
2013-04-17 03:15:00,57.8,56.1,30.14,West,271,0.0,3.0,94,0.00,,,0.00,Wunderground v.1.13,2013-04-17 07:15:00,
2013-04-17 03:20:00,57.8,56.1,30.14,West,271,0.0,3.0,94,0.00,,,0.00,Wunderground v.1.13,2013-04-17 07:20:00,
2013-04-17 03:30:00,57.6,55.9,30.14,ESE,103,1.0,3.0,94,0.00,,,0.00,Wunderground v.1.13,2013-04-17 07:30:00,
2013-04-17 03:35:00,57.4,55.7,30.14,East,96,1.0,3.0,94,0.00,,,0.00,Wunderground v.1.13,2013-04-17 07:35:00,
2013-04-17 03:40:00,57.3,55.6,30.14,East,96,1.0,3.0,94,0.00,,,0.00,Wunderground v.1.13,2013-04-17 07:40:00,
2013-04-17 03:45:00,57.1,55.4,30.14,East,96,1.0,3.0,94,0.00,,,0.00,Wunderground v.1.13,2013-04-17 07:45:00,
2013-04-17 03:50:00,56.9,55.2,30.14,East,96,1.0,3.0,94,0.00,,,0.00,Wunderground v.1.13,2013-04-17 07:50:00,
2013-04-17 04:00:00,56.7,55.0,30.14,East,94,1.0,1.0,94,0.00,,,0.00,Wunderground v.1.13,2013-04-17 08:00:00,
2013-04-17 04:05:00,56.6,54.9,30.15,East,94,0.0,2.0,94,0.00,,,0.00,Wunderground v.1.13,2013-04-17 08:05:00,
2013-04-17 04:15:00,56.4,54.7,30.15,East,94,0.0,2.0,94,0.00,,,0.00,Wunderground v.1.13,2013-04-17 08:15:00,
2013-04-17 04:25:00,56.2,54.5,30.15,East,94,0.0,2.0,94,0.00,,,0.00,Wunderground v.1.13,2013-04-17 08:25:00,
2013-04-17 04:35:00,56.0,54.3,30.15,East,94,0.0,2.0,94,0.00,,,0.00,Wunderground v.1.13,2013-04-17 08:35:00,
2013-04-17 04:40:00,55.9,54.2,30.15,East,94,0.0,2.0,94,0.00,,,0.00,Wunderground v.1.13,2013-04-17 08:40:00,
2013-04-17 04:45:00,55.8,54.1,30.16,East,94,0.0,2.0,94,0.00,,,0.00,Wunderground v.1.13,2013-04-17 08:45:00,
2013-04-17 04:55:00,55.9,54.2,30.16,WSW,242,0.0,2.0,94,0.00,,,0.00,Wunderground v.1.13,2013-04-17 08:55:00,
2013-04-17 05:00:00,55.8,54.1,30.16,WSW,242,1.0,1.0,94,0.00,,,0.00,Wunderground v.1.13,2013-04-17 09:00:00,
2013-04-17 05:05:00,55.6,53.9,30.17,SW,236,1.0,3.0,94,0.00,,,0.00,Wunderground v.1.13,2013-04-17 09:05:00,
2013-04-17 05:15:00,55.5,53.8,30.16,SW,236,1.0,1.0,94,0.00,,,0.00,Wunderground v.1.13,2013-04-17 09:15:00,
2013-04-17 05:20:00,55.4,53.7,30.17,SW,236,0.0,3.0,94,0.00,,,0.00,Wunderground v.1.13,2013-04-17 09:20:00,
2013-04-17 05:30:00,55.3,53.6,30.17,SW,236,0.0,3.0,94,0.00,,,0.00,Wunderground v.1.13,2013-04-17 09:30:00,
2013-04-17 05:35:00,55.3,53.6,30.17,SW,236,0.0,3.0,94,0.00,,,0.00,Wunderground v.1.13,2013-04-17 09:35:00,
2013-04-17 05:40:00,55.3,53.6,30.18,West,260,0.0,3.0,94,0.00,,,0.00,Wunderground v.1.13,2013-04-17 09:40:00,
2013-04-17 05:45:00,55.3,53.6,30.18,West,260,1.0,1.0,94,0.00,,,0.00,Wunderground v.1.13,2013-04-17 09:45:00,
2013-04-17 05:50:00,55.2,53.5,30.18,West,259,1.0,1.0,94,0.00,,,0.00,Wunderground v.1.13,2013-04-17 09:50:00,
2013-04-17 06:00:00,54.9,53.2,30.17,SSW,196,0.0,3.0,94,0.00,,,0.00,Wunderground v.1.13,2013-04-17 10:00:00,
2013-04-17 06:05:00,54.8,53.1,30.18,SSW,196,0.0,1.0,94,0.00,,,0.00,Wunderground v.1.13,2013-04-17 10:05:00,
2013-04-17 06:15:00,54.6,52.9,30.17,South,169,0.0,1.0,94,0.00,,,0.00,Wunderground v.1.13,2013-04-17 10:15:00,
2013-04-17 06:25:00,54.4,52.7,30.18,South,184,0.0,1.0,94,0.00,,,0.00,Wunderground v.1.13,2013-04-17 10:25:00,
2013-04-17 06:35:00,54.3,52.6,30.18,South,182,0.0,1.0,94,0.00,,,0.00,Wunderground v.1.13,2013-04-17 10:35:00,
2013-04-17 06:45:00,54.1,52.4,30.18,WSW,249,1.0,3.0,94,0.00,,,0.00,Wunderground v.1.13,2013-04-17 10:45:00,
2013-04-17 06:50:00,54.0,52.3,30.18,West,281,1.0,3.0,94,0.00,,,0.00,Wunderground v.1.13,2013-04-17 10:50:00,
2013-04-17 07:00:00,53.9,52.2,30.18,West,280,1.0,2.0,94,0.00,,,0.00,Wunderground v.1.13,2013-04-17 11:00:00,
2013-04-17 07:05:00,53.7,51.7,30.19,West,280,1.0,3.0,93,0.00,,,0.00,Wunderground v.1.13,2013-04-17 11:05:00,
2013-04-17 07:15:00,53.5,51.5,30.19,SW,223,2.0,2.0,93,0.00,,,0.00,Wunderground v.1.13,2013-04-17 11:15:00,
2013-04-17 07:20:00,53.4,51.4,30.19,SW,223,1.0,1.0,93,0.00,,,0.00,Wunderground v.1.13,2013-04-17 11:20:00,
2013-04-17 07:30:00,53.3,51.0,30.20,SW,225,1.0,5.0,92,0.00,,,0.00,Wunderground v.1.13,2013-04-17 11:30:00,
2013-04-17 07:40:00,53.2,50.9,30.21,SW,234,1.0,1.0,92,0.00,,,0.00,Wunderground v.1.13,2013-04-17 11:40:00,
2013-04-17 07:45:00,53.3,51.0,30.21,SW,234,0.0,3.0,92,0.00,,,0.00,Wunderground v.1.13,2013-04-17 11:45:00,
2013-04-17 07:50:00,53.3,51.0,30.21,SW,234,0.0,3.0,92,0.00,,,0.00,Wunderground v.1.13,2013-04-17 11:50:00,
2013-04-17 08:00:00,53.2,50.9,30.21,South,177,1.0,1.0,92,0.00,,,0.00,Wunderground v.1.13,2013-04-17 12:00:00,
2013-04-17 08:05:00,53.2,50.6,30.21,West,277,1.0,1.0,91,0.00,,,0.00,Wunderground v.1.13,2013-04-17 12:05:00,
2013-04-17 08:15:00,53.3,50.7,30.21,SSE,152,1.0,5.0,91,0.00,,,0.00,Wunderground v.1.13,2013-04-17 12:15:00,
2013-04-17 08:20:00,53.5,50.9,30.21,SSE,148,0.0,5.0,91,0.00,,,0.00,Wunderground v.1.13,2013-04-17 12:20:00,
2013-04-17 08:25:00,53.5,50.9,30.22,NNE,30,1.0,1.0,91,0.00,,,0.00,Wunderground v.1.13,2013-04-17 12:25:00,
2013-04-17 08:35:00,53.6,50.4,30.21,South,186,1.0,1.0,89,0.00,,,0.00,Wunderground v.1.13,2013-04-17 12:35:00,
2013-04-17 08:45:00,53.3,49.8,30.22,ENE,64,1.0,1.0,88,0.00,,,0.00,Wunderground v.1.13,2013-04-17 12:45:00,
2013-04-17 08:50:00,53.3,49.8,30.22,SSW,192,1.0,5.0,88,0.00,,,0.00,Wunderground v.1.13,2013-04-17 12:50:00,
2013-04-17 08:55:00,53.2,49.4,30.23,SSE,167,0.0,5.0,87,0.00,,,0.00,Wunderground v.1.13,2013-04-17 12:55:00,
2013-04-17 09:00:00,53.2,49.4,30.23,South,180,0.0,5.0,87,0.00,,,0.00,Wunderground v.1.13,2013-04-17 13:00:00,
2013-04-17 09:05:00,53.2,49.4,30.22,South,171,0.0,2.0,87,0.00,,,0.00,Wunderground v.1.13,2013-04-17 13:05:00,
2013-04-17 09:15:00,53.2,48.8,30.23,West,259,1.0,1.0,85,0.00,,,0.00,Wunderground v.1.13,2013-04-17 13:15:00,
2013-04-17 09:20:00,53.2,48.8,30.23,East,91,1.0,2.0,85,0.00,,,0.00,Wunderground v.1.13,2013-04-17 13:20:00,
2013-04-17 09:25:00,53.2,48.8,30.23,ENE,66,1.0,2.0,85,0.00,,,0.00,Wunderground v.1.13,2013-04-17 13:25:00,
2013-04-17 09:30:00,53.3,48.9,30.23,NW,311,1.0,2.0,85,0.00,,,0.00,Wunderground v.1.13,2013-04-17 13:30:00,
2013-04-17 09:35:00,53.4,48.7,30.23,West,280,1.0,2.0,84,0.00,,,0.00,Wunderground v.1.13,2013-04-17 13:35:00,
2013-04-17 09:45:00,53.6,48.6,30.23,NW,310,2.0,2.0,83,0.00,,,0.00,Wunderground v.1.13,2013-04-17 13:45:00,
2013-04-17 09:50:00,53.8,49.1,30.23,NW,304,1.0,1.0,84,0.00,,,0.00,Wunderground v.1.13,2013-04-17 13:50:00,
2013-04-17 09:55:00,53.9,48.5,30.22,NW,311,1.0,2.0,82,0.00,,,0.00,Wunderground v.1.13,2013-04-17 13:55:00,
2013-04-17 10:00:00,54.0,49.0,30.23,SSE,164,1.0,1.0,83,0.00,,,0.00,Wunderground v.1.13,2013-04-17 14:00:00,
2013-04-17 10:05:00,54.2,49.1,30.22,SSE,152,1.0,3.0,83,0.00,,,0.00,Wunderground v.1.13,2013-04-17 14:05:00,
2013-04-17 10:15:00,54.6,49.2,30.23,SSE,148,0.0,3.0,82,0.00,,,0.00,Wunderground v.1.13,2013-04-17 14:15:00,
2013-04-17 10:20:00,54.8,49.4,30.23,SSE,148,0.0,3.0,82,0.00,,,0.00,Wunderground v.1.13,2013-04-17 14:20:00,
2013-04-17 10:25:00,54.8,49.4,30.23,SSE,148,0.0,3.0,82,0.00,,,0.00,Wunderground v.1.13,2013-04-17 14:25:00,
2013-04-17 10:30:00,55.0,49.6,30.23,SSW,199,0.0,3.0,82,0.00,,,0.00,Wunderground v.1.13,2013-04-17 14:30:00,
2013-04-17 10:40:00,55.3,49.9,30.23,SSW,198,0.0,3.0,82,0.00,,,0.00,Wunderground v.1.13,2013-04-17 14:40:00,
2013-04-17 10:45:00,55.6,50.2,30.23,SE,146,1.0,1.0,82,0.00,,,0.00,Wunderground v.1.13,2013-04-17 14:45:00,
2013-04-17 10:55:00,55.8,50.1,30.23,SE,140,1.0,3.0,81,0.00,,,0.00,Wunderground v.1.13,2013-04-17 14:55:00,
2013-04-17 11:00:00,56.0,49.6,30.22,SSE,156,1.0,3.0,79,0.00,,,0.00,Wunderground v.1.13,2013-04-17 15:00:00,
2013-04-17 11:05:00,56.2,50.1,30.23,ESE,109,2.0,2.0,80,0.00,,,0.00,Wunderground v.1.13,2013-04-17 15:05:00,
2013-04-17 11:15:00,56.6,50.2,30.23,SE,124,2.0,2.0,79,0.00,,,0.00,Wunderground v.1.13,2013-04-17 15:15:00,
2013-04-17 11:25:00,56.8,50.0,30.23,SSE,163,1.0,1.0,78,0.00,,,0.00,Wunderground v.1.13,2013-04-17 15:25:00,
2013-04-17 11:30:00,56.9,50.5,30.23,SE,140,1.0,1.0,79,0.00,,,0.00,Wunderground v.1.13,2013-04-17 15:30:00,
2013-04-17 11:35:00,57.1,50.3,30.23,South,179,1.0,1.0,78,0.00,,,0.00,Wunderground v.1.13,2013-04-17 15:35:00,
2013-04-17 11:40:00,57.2,50.4,30.23,SE,130,1.0,1.0,78,0.00,,,0.00,Wunderground v.1.13,2013-04-17 15:40:00,
2013-04-17 11:45:00,57.6,51.1,30.23,SE,130,1.0,1.0,79,0.00,,,0.00,Wunderground v.1.13,2013-04-17 15:45:00,
2013-04-17 11:50:00,57.7,50.5,30.23,SE,140,1.0,1.0,77,0.00,,,0.00,Wunderground v.1.13,2013-04-17 15:50:00,
2013-04-17 12:00:00,58.0,50.8,30.23,SSE,163,1.0,1.0,77,0.00,,,0.00,Wunderground v.1.13,2013-04-17 16:00:00,
2013-04-17 12:05:00,58.5,51.3,30.23,SE,141,1.0,3.0,77,0.00,,,0.00,Wunderground v.1.13,2013-04-17 16:05:00,
2013-04-17 12:15:00,58.8,50.9,30.23,SE,138,1.0,1.0,75,0.00,,,0.00,Wunderground v.1.13,2013-04-17 16:15:00,
2013-04-17 12:20:00,59.0,51.4,30.23,SE,139,1.0,1.0,76,0.00,,,0.00,Wunderground v.1.13,2013-04-17 16:20:00,
2013-04-17 12:25:00,59.1,51.2,30.22,NW,310,1.0,3.0,75,0.00,,,0.00,Wunderground v.1.13,2013-04-17 16:25:00,
2013-04-17 12:35:00,59.8,52.2,30.21,SE,145,1.0,1.0,76,0.00,,,0.00,Wunderground v.1.13,2013-04-17 16:35:00,
2013-04-17 12:45:00,60.3,52.0,30.21,South,173,1.0,3.0,74,0.00,,,0.00,Wunderground v.1.13,2013-04-17 16:45:00,
2013-04-17 12:55:00,60.5,52.2,30.21,SSE,153,1.0,3.0,74,0.00,,,0.00,Wunderground v.1.13,2013-04-17 16:55:00,
2013-04-17 13:00:00,60.8,52.5,30.21,SE,144,1.0,1.0,74,0.00,,,0.00,Wunderground v.1.13,2013-04-17 17:00:00,
2013-04-17 13:05:00,60.7,52.4,30.20,SE,128,2.0,2.0,74,0.00,,,0.00,Wunderground v.1.13,2013-04-17 17:05:00,
2013-04-17 13:15:00,61.2,52.8,30.20,SSE,161,0.0,6.0,74,0.00,,,0.00,Wunderground v.1.13,2013-04-17 17:15:00,
2013-04-17 13:25:00,61.9,53.1,30.20,SW,216,1.0,6.0,73,0.00,,,0.00,Wunderground v.1.13,2013-04-17 17:25:00,
2013-04-17 13:35:00,62.5,53.3,30.19,SE,144,1.0,6.0,72,0.00,,,0.00,Wunderground v.1.13,2013-04-17 17:35:00,
2013-04-17 13:40:00,62.3,53.2,30.19,SSE,148,1.0,1.0,72,0.00,,,0.00,Wunderground v.1.13,2013-04-17 17:40:00,
2013-04-17 13:45:00,62.3,53.5,30.19,SE,126,1.0,1.0,73,0.00,,,0.00,Wunderground v.1.13,2013-04-17 17:45:00,
2013-04-17 13:50:00,62.3,52.8,30.19,South,184,1.0,6.0,71,0.00,,,0.00,Wunderground v.1.13,2013-04-17 17:50:00,
2013-04-17 13:55:00,62.3,53.2,30.19,West,265,2.0,6.0,72,0.00,,,0.00,Wunderground v.1.13,2013-04-17 17:55:00,
2013-04-17 14:05:00,62.7,53.5,30.19,SE,140,2.0,2.0,72,0.00,,,0.00,Wunderground v.1.13,2013-04-17 18:05:00,
2013-04-17 14:15:00,62.9,53.7,30.20,SE,144,1.0,1.0,72,0.00,,,0.00,Wunderground v.1.13,2013-04-17 18:15:00,
2013-04-17 14:20:00,62.9,53.7,30.20,SW,214,1.0,4.0,72,0.00,,,0.00,Wunderground v.1.13,2013-04-17 18:20:00,
2013-04-17 14:25:00,62.8,53.6,30.20,SW,226,2.0,2.0,72,0.00,,,0.00,Wunderground v.1.13,2013-04-17 18:25:00,
2013-04-17 14:30:00,62.9,53.7,30.19,SW,217,1.0,1.0,72,0.00,,,0.00,Wunderground v.1.13,2013-04-17 18:30:00,
2013-04-17 14:35:00,63.1,53.9,30.19,SE,144,1.0,4.0,72,0.00,,,0.00,Wunderground v.1.13,2013-04-17 18:35:00,
2013-04-17 14:45:00,63.2,54.0,30.18,SE,137,1.0,4.0,72,0.00,,,0.00,Wunderground v.1.13,2013-04-17 18:45:00,
2013-04-17 14:55:00,63.5,54.7,30.18,South,190,1.0,1.0,73,0.00,,,0.00,Wunderground v.1.13,2013-04-17 18:55:00,
2013-04-17 15:05:00,63.6,54.0,30.18,SSE,148,1.0,1.0,71,0.00,,,0.00,Wunderground v.1.13,2013-04-17 19:05:00,
2013-04-17 15:15:00,64.2,55.0,30.18,SSE,152,0.0,4.0,72,0.00,,,0.00,Wunderground v.1.13,2013-04-17 19:15:00,
2013-04-17 15:20:00,64.0,54.8,30.18,SE,130,1.0,4.0,72,0.00,,,0.00,Wunderground v.1.13,2013-04-17 19:20:00,
2013-04-17 15:30:00,64.0,55.2,30.18,SSE,155,1.0,4.0,73,0.00,,,0.00,Wunderground v.1.13,2013-04-17 19:30:00,
2013-04-17 15:40:00,64.8,55.2,30.17,WSW,253,1.0,1.0,71,0.00,,,0.00,Wunderground v.1.13,2013-04-17 19:40:00,
2013-04-17 15:50:00,65.0,55.4,30.17,SSE,159,1.0,4.0,71,0.00,,,0.00,Wunderground v.1.13,2013-04-17 19:50:00,
2013-04-17 16:00:00,64.9,56.0,30.17,SE,141,1.0,1.0,73,0.00,,,0.00,Wunderground v.1.13,2013-04-17 20:00:00,
2013-04-17 16:05:00,65.4,56.5,30.16,SSW,213,1.0,5.0,73,0.00,,,0.00,Wunderground v.1.13,2013-04-17 20:05:00,
2013-04-17 16:15:00,65.7,56.0,30.16,SE,128,2.0,5.0,71,0.00,,,0.00,Wunderground v.1.13,2013-04-17 20:15:00,
2013-04-17 16:25:00,66.4,56.7,30.17,SW,232,2.0,2.0,71,0.00,,,0.00,Wunderground v.1.13,2013-04-17 20:25:00,
2013-04-17 16:35:00,66.3,56.6,30.16,South,188,1.0,5.0,71,0.00,,,0.00,Wunderground v.1.13,2013-04-17 20:35:00,
2013-04-17 16:40:00,66.5,56.8,30.16,SSE,159,2.0,2.0,71,0.00,,,0.00,Wunderground v.1.13,2013-04-17 20:40:00,
2013-04-17 16:45:00,66.3,56.6,30.16,SE,143,2.0,5.0,71,0.00,,,0.00,Wunderground v.1.13,2013-04-17 20:45:00,
2013-04-17 16:55:00,66.5,57.2,30.16,SE,142,1.0,5.0,72,0.00,,,0.00,Wunderground v.1.13,2013-04-17 20:55:00,
2013-04-17 17:05:00,66.8,57.1,30.16,SE,126,2.0,4.0,71,0.00,,,0.00,Wunderground v.1.13,2013-04-17 21:05:00,
2013-04-17 17:15:00,66.6,56.5,30.16,SE,143,2.0,4.0,70,0.00,,,0.00,Wunderground v.1.13,2013-04-17 21:15:00,
2013-04-17 17:20:00,66.5,56.8,30.15,SE,144,2.0,5.0,71,0.00,,,0.00,Wunderground v.1.13,2013-04-17 21:20:00,
2013-04-17 17:25:00,66.5,56.8,30.15,SE,133,2.0,2.0,71,0.00,,,0.00,Wunderground v.1.13,2013-04-17 21:25:00,
2013-04-17 17:30:00,66.8,56.7,30.15,SE,141,1.0,1.0,70,0.00,,,0.00,Wunderground v.1.13,2013-04-17 21:30:00,
2013-04-17 17:40:00,67.3,56.8,30.14,SSE,152,0.0,4.0,69,0.00,,,0.00,Wunderground v.1.13,2013-04-17 21:40:00,
2013-04-17 17:45:00,67.3,57.2,30.14,SSE,149,1.0,1.0,70,0.00,,,0.00,Wunderground v.1.13,2013-04-17 21:45:00,
2013-04-17 17:55:00,68.0,58.2,30.14,SSE,149,1.0,4.0,71,0.00,,,0.00,Wunderground v.1.13,2013-04-17 21:55:00,
2013-04-17 18:05:00,68.3,57.7,30.14,SSE,149,1.0,1.0,69,0.00,,,0.00,Wunderground v.1.13,2013-04-17 22:05:00,
2013-04-17 18:15:00,69.2,58.6,30.14,ENE,75,0.0,5.0,69,0.00,,,0.00,Wunderground v.1.13,2013-04-17 22:15:00,
2013-04-17 18:20:00,69.1,58.1,30.13,ENE,78,1.0,1.0,68,0.00,,,0.00,Wunderground v.1.13,2013-04-17 22:20:00,
2013-04-17 18:30:00,68.6,58.0,30.14,SE,128,1.0,5.0,69,0.00,,,0.00,Wunderground v.1.13,2013-04-17 22:30:00,
2013-04-17 18:35:00,68.1,57.9,30.13,SE,142,1.0,1.0,70,0.00,,,0.00,Wunderground v.1.13,2013-04-17 22:35:00,
2013-04-17 18:40:00,68.1,57.9,30.13,South,186,1.0,1.0,70,0.00,,,0.00,Wunderground v.1.13,2013-04-17 22:40:00,
2013-04-17 18:45:00,67.8,57.7,30.13,ESE,105,1.0,1.0,70,0.00,,,0.00,Wunderground v.1.13,2013-04-17 22:45:00,
2013-04-17 18:50:00,67.7,58.0,30.13,South,178,0.0,5.0,71,0.00,,,0.00,Wunderground v.1.13,2013-04-17 22:50:00,
2013-04-17 18:55:00,67.7,58.0,30.13,South,179,1.0,1.0,71,0.00,,,0.00,Wunderground v.1.13,2013-04-17 22:55:00,
2013-04-17 19:05:00,67.4,58.1,30.12,South,179,0.0,2.0,72,0.00,,,0.00,Wunderground v.1.13,2013-04-17 23:05:00,
2013-04-17 19:15:00,67.4,58.1,30.12,South,179,0.0,2.0,72,0.00,,,0.00,Wunderground v.1.13,2013-04-17 23:15:00,
2013-04-17 19:25:00,66.9,57.6,30.12,South,179,0.0,2.0,72,0.00,,,0.00,Wunderground v.1.13,2013-04-17 23:25:00,
2013-04-17 19:30:00,66.8,57.5,30.13,South,179,0.0,2.0,72,0.00,,,0.00,Wunderground v.1.13,2013-04-17 23:30:00,
2013-04-17 19:35:00,66.7,57.4,30.13,South,179,0.0,2.0,72,0.00,,,0.00,Wunderground v.1.13,2013-04-17 23:35:00,
2013-04-17 19:40:00,66.5,57.6,30.12,South,179,0.0,2.0,73,0.00,,,0.00,Wunderground v.1.13,2013-04-17 23:40:00,
2013-04-17 19:45:00,66.3,57.4,30.12,South,179,1.0,2.0,73,0.00,,,0.00,Wunderground v.1.13,2013-04-17 23:45:00,
2013-04-17 19:55:00,65.7,57.6,30.12,South,178,2.0,2.0,75,0.00,,,0.00,Wunderground v.1.13,2013-04-17 23:55:00,
2013-04-17 20:00:00,65.3,57.2,30.12,South,178,1.0,2.0,75,0.00,,,0.00,Wunderground v.1.13,2013-04-18 00:00:00,
2013-04-17 20:05:00,64.9,57.2,30.12,South,178,1.0,2.0,76,0.00,,,0.00,Wunderground v.1.13,2013-04-18 00:05:00,
2013-04-17 20:15:00,64.5,57.1,30.11,South,178,1.0,2.0,77,0.00,,,0.00,Wunderground v.1.13,2013-04-18 00:15:00,
2013-04-17 20:20:00,64.2,56.8,30.11,South,178,0.0,2.0,77,0.00,,,0.00,Wunderground v.1.13,2013-04-18 00:20:00,
2013-04-17 20:30:00,63.5,56.5,30.11,South,178,1.0,2.0,78,0.00,,,0.00,Wunderground v.1.13,2013-04-18 00:30:00,
2013-04-17 20:35:00,63.3,56.7,30.12,South,178,1.0,2.0,79,0.00,,,0.00,Wunderground v.1.13,2013-04-18 00:35:00,
2013-04-17 20:40:00,63.2,56.9,30.12,South,178,1.0,1.0,80,0.00,,,0.00,Wunderground v.1.13,2013-04-18 00:40:00,
2013-04-17 20:45:00,62.9,56.6,30.13,South,178,0.0,2.0,80,0.00,,,0.00,Wunderground v.1.13,2013-04-18 00:45:00,
2013-04-17 20:50:00,62.5,56.2,30.13,South,178,0.0,2.0,80,0.00,,,0.00,Wunderground v.1.13,2013-04-18 00:50:00,
2013-04-17 20:55:00,62.3,56.4,30.13,South,178,0.0,2.0,81,0.00,,,0.00,Wunderground v.1.13,2013-04-18 00:55:00,
2013-04-17 21:00:00,62.1,56.2,30.13,South,178,0.0,2.0,81,0.00,,,0.00,Wunderground v.1.13,2013-04-18 01:00:00,
2013-04-17 21:05:00,61.8,55.9,30.13,South,178,0.0,1.0,81,0.00,,,0.00,Wunderground v.1.13,2013-04-18 01:05:00,
2013-04-17 21:15:00,61.4,55.9,30.13,South,178,0.0,1.0,82,0.00,,,0.00,Wunderground v.1.13,2013-04-18 01:15:00,
2013-04-17 21:20:00,61.2,56.0,30.13,South,178,0.0,1.0,83,0.00,,,0.00,Wunderground v.1.13,2013-04-18 01:20:00,
2013-04-17 21:25:00,61.1,55.9,30.13,South,178,0.0,1.0,83,0.00,,,0.00,Wunderground v.1.13,2013-04-18 01:25:00,
2013-04-17 21:30:00,60.8,55.6,30.14,South,178,0.0,1.0,83,0.00,,,0.00,Wunderground v.1.13,2013-04-18 01:30:00,
2013-04-17 21:35:00,60.5,55.6,30.14,South,178,0.0,1.0,84,0.00,,,0.00,Wunderground v.1.13,2013-04-18 01:35:00,
2013-04-17 21:40:00,60.3,55.8,30.14,South,178,0.0,1.0,85,0.00,,,0.00,Wunderground v.1.13,2013-04-18 01:40:00,
2013-04-17 21:50:00,59.6,55.4,30.14,South,178,0.0,1.0,86,0.00,,,0.00,Wunderground v.1.13,2013-04-18 01:50:00,
2013-04-17 21:55:00,59.3,55.1,30.14,South,178,0.0,1.0,86,0.00,,,0.00,Wunderground v.1.13,2013-04-18 01:55:00,
2013-04-17 22:00:00,59.0,54.8,30.14,South,178,0.0,1.0,86,0.00,,,0.00,Wunderground v.1.13,2013-04-18 02:00:00,
2013-04-17 22:05:00,59.0,54.8,30.14,South,178,0.0,0.0,86,0.00,,,0.00,Wunderground v.1.13,2013-04-18 02:05:00,
2013-04-17 22:15:00,59.0,54.8,30.14,South,178,0.0,0.0,86,0.00,,,0.00,Wunderground v.1.13,2013-04-18 02:15:00,
2013-04-17 22:20:00,58.9,55.0,30.13,South,178,0.0,0.0,87,0.00,,,0.00,Wunderground v.1.13,2013-04-18 02:20:00,
2013-04-17 22:25:00,58.6,54.7,30.13,South,178,0.0,0.0,87,0.00,,,0.00,Wunderground v.1.13,2013-04-18 02:25:00,
2013-04-17 22:30:00,58.4,54.5,30.12,South,178,0.0,0.0,87,0.00,,,0.00,Wunderground v.1.13,2013-04-18 02:30:00,
2013-04-17 22:35:00,58.2,54.3,30.12,South,178,0.0,0.0,87,0.00,,,0.00,Wunderground v.1.13,2013-04-18 02:35:00,
2013-04-17 22:40:00,58.2,54.3,30.11,South,178,0.0,0.0,87,0.00,,,0.00,Wunderground v.1.13,2013-04-18 02:40:00,
2013-04-17 22:50:00,58.1,54.6,30.10,South,178,0.0,0.0,88,0.00,,,0.00,Wunderground v.1.13,2013-04-18 02:50:00,
2013-04-17 23:00:00,58.1,54.6,30.09,South,178,0.0,0.0,88,0.00,,,0.00,Wunderground v.1.13,2013-04-18 03:00:00,
2013-04-17 23:05:00,58.1,54.6,30.09,South,178,0.0,0.0,88,0.00,,,0.00,Wunderground v.1.13,2013-04-18 03:05:00,
2013-04-17 23:15:00,58.0,54.5,30.08,South,178,0.0,0.0,88,0.00,,,0.00,Wunderground v.1.13,2013-04-18 03:15:00,
2013-04-17 23:25:00,57.9,54.7,30.09,South,178,0.0,0.0,89,0.00,,,0.00,Wunderground v.1.13,2013-04-18 03:25:00,
2013-04-17 23:35:00,58.3,55.1,30.09,ESE,120,0.0,0.0,89,0.00,,,0.00,Wunderground v.1.13,2013-04-18 03:35:00,
2013-04-17 23:45:00,59.0,55.8,30.09,East,80,0.0,0.0,89,0.00,,,0.00,Wunderground v.1.13,2013-04-18 03:45:00,
2013-04-17 23:50:00,59.0,55.8,30.09,East,79,0.0,0.0,89,0.00,,,0.00,Wunderground v.1.13,2013-04-18 03:50:00,
2013-04-17 23:55:00,59.4,55.8,30.09,ENE,78,0.0,2.0,88,0.00,,,0.00,Wunderground v.1.13,2013-04-18 03:55:00,